[[{"header":{"parameterUnit":"m.s-1","parameterCategory":1,"la1":30.2992,"la2":30.254,"lo1":-89.0895,"lo2":-89.0443,"dy":0.0025,"dx":0.0025,"nx":19,"ny":19,"refTime":"2026-04-12T03:00:00:Z","depth":0,"parameterNumber":2,"parameterNumberName":"U-component_of_WINDS"},"data":[0,0,0,-4.2588,-4.2591,-4.2735,-4.2735,-4.2926,-4.2928,0,0,0,0,0,0,0,0,0,0,0,-4.255,-4.2551,-4.2588,-4.2591,-4.2735,-4.2735,-4.2926,-4.2928,0,0,0,0,0,0,0,0,0,0,0,-4.2549,-4.2551,-4.2553,-4.2592,-4.2735,-4.2735,-4.2926,-4.2815,0,0,0,0,0,0,0,0,0,0,-4.2674,-4.2643,-4.2551,-4.2553,-4.2593,-4.2735,-4.2735,-4.2809,-4.2822,-4.2865,0,-4.2904,0,-4.2919,-4.2942,-4.2942,0,0,0,-4.2588,-4.2633,-4.2668,-4.2553,-4.2594,-4.2734,-4.2669,-4.2816,-4.283,-4.2881,-4.2907,-4.2914,-4.2923,-4.2943,-4.2944,-4.3205,-4.3206,0,0,-4.258,-4.2578,-4.2658,-4.2677,-4.2656,-4.2664,-4.2674,-4.2824,-4.2852,-4.2908,-4.2918,-4.2926,-4.2944,-4.2946,-4.3204,-4.3205,0,0,0,-4.2559,-4.2573,-4.2603,-4.2669,-4.2695,-4.2669,-4.2679,-4.2846,-4.2856,-4.292,-4.2928,-4.2945,-4.2948,-4.3202,-4.3204,-4.327,0,0,0,-4.2554,-4.2561,-4.26,-4.2601,-4.2692,-4.2772,-4.2697,-4.2845,-4.2862,-4.2927,-4.2945,-4.295,-4.3201,-4.3203,-4.3265,-4.3301,0,0,0,-4.2539,-4.2559,-4.2581,-4.26,-4.2662,-4.277,-4.2788,-4.2849,-4.2868,-4.2942,-4.295,-4.32,-4.3203,-4.3261,-4.3294,-4.3369,0,0,0,-4.2522,-4.2638,-4.2582,-4.2715,-4.2661,-4.281,-4.2787,-4.2899,-4.2971,-4.2946,-4.3201,-4.3204,-4.3259,-4.3289,-4.3364,-4.343,-4.3458,0,0,-4.2667,-4.2655,-4.2734,-4.2688,-4.2847,-4.2788,-4.2957,-4.3024,-4.3033,-4.3147,-4.3154,-4.3267,-4.3293,-4.3368,-4.3618,-4.3641,0,0,0,-4.2779,-4.2835,-4.2878,-4.2947,-4.3002,-4.3052,-4.3095,-4.312,-4.3217,-4.3092,-4.3315,-4.3331,-4.3375,-4.3406,-4.3425,-4.3462,-4.3219,-4.3219,-4.3218,-4.2981,-4.2987,-4.3117,-4.3141,-4.3208,-4.3251,-4.3307,-4.3348,-4.3334,-4.3387,-4.342,-4.3571,-4.3609,-4.3623,-4.3661,-4.3457,-4.3457,-4.3457,-4.3458,-4.3194,-4.3274,-4.3254,-4.3372,-4.3378,-4.3478,-4.3525,-4.3512,-4.3605,-4.3547,-4.3585,-4.3519,-4.3647,-4.3681,-4.3463,-4.3462,-4.3461,-4.3461,-4.346,-4.3325,-4.3364,-4.3394,-4.3495,-4.3572,-4.3593,-4.3684,-4.3686,-4.3689,-4.3728,-4.3762,-4.3761,-4.3759,-4.3745,-4.3745,-4.3746,-4.3746,-4.3746,-4.3747,-4.3449,-4.348,-4.3557,-4.3626,-4.3671,-4.3731,-4.3777,-4.3822,-4.3871,-4.3866,-4.3866,-4.3846,-4.3659,-4.3611,-4.3755,-4.3753,-4.3752,-4.3752,-4.3751,-4.3659,-4.3612,-4.373,-4.3775,-4.3857,-4.3934,-4.3937,-4.4028,-4.4065,-4.411,-4.4083,-4.3945,-4.3932,-4.3917,-4.3877,-4.4082,-4.4082,-4.4082,-4.4082,-4.3768,-4.3763,-4.3884,-4.3957,-4.4028,-4.4043,-4.4176,-4.4214,-4.4246,-4.4269,-4.4241,-4.4189,-4.4173,-4.417,-4.415,-4.4112,-4.4372,-4.4372,-4.4372,-4.3898,-4.39,-4.4012,-4.4043,-4.4108,-4.4163,-4.4289,-4.4373,-4.4399,-4.4384,-4.4287,-4.4275,-4.4191,-4.4164,-4.4144,-4.4112,-4.4044,0,0]},{"header":{"parameterUnit":"m.s-1","parameterCategory":1,"la1":30.2992,"la2":30.254,"lo1":-89.0895,"lo2":-89.0443,"dy":0.0025,"dx":0.0025,"nx":19,"ny":19,"refTime":"2026-04-12T03:00:00:Z","depth":0,"parameterNumber":3,"parameterNumberName":"V-component_of_WINDS"},"data":[0,0,0,3.3141,3.3143,3.3273,3.3274,3.3419,3.342,0,0,0,0,0,0,0,0,0,0,0,3.3093,3.3094,3.3141,3.3144,3.3273,3.3274,3.3419,3.342,0,0,0,0,0,0,0,0,0,0,0,3.3092,3.3093,3.3094,3.3144,3.3273,3.3274,3.3418,3.3327,0,0,0,0,0,0,0,0,0,0,3.3205,3.3152,3.3093,3.3094,3.3145,3.3273,3.3274,3.3323,3.3333,3.3352,0,3.337,0,3.3397,3.3429,3.3429,0,0,0,3.315,3.3143,3.3188,3.3094,3.3146,3.3272,3.3216,3.3329,3.334,3.3365,3.3372,3.3378,3.34,3.3429,3.343,3.3531,3.3531,0,0,3.3143,3.311,3.318,3.3194,3.3176,3.3212,3.322,3.3336,3.3339,3.3373,3.3382,3.3402,3.343,3.3431,3.3531,3.3531,0,0,0,3.3118,3.3105,3.3147,3.3188,3.3213,3.3216,3.3225,3.3334,3.3351,3.3383,3.3404,3.3431,3.3433,3.3531,3.3531,3.351,0,0,0,3.3114,3.309,3.3143,3.3124,3.321,3.3276,3.3221,3.3343,3.3357,3.3403,3.3431,3.3434,3.353,3.3531,3.351,3.3505,0,0,0,3.3087,3.3087,3.3103,3.3122,3.3177,3.3275,3.3298,3.3347,3.3369,3.3429,3.3434,3.353,3.3531,3.3511,3.3505,3.3523,0,0,0,3.3049,3.308,3.3102,3.3145,3.3176,3.3262,3.3298,3.3363,3.3411,3.3432,3.353,3.3531,3.3511,3.3506,3.3523,3.3533,3.3534,0,0,3.307,3.3081,3.3109,3.3133,3.3208,3.3245,3.3315,3.3389,3.3422,3.3492,3.3495,3.351,3.3505,3.3523,3.3551,3.3551,0,0,0,3.3105,3.3124,3.3151,3.3198,3.3258,3.3309,3.3376,3.3403,3.3465,3.3453,3.3523,3.3521,3.3532,3.3538,3.3539,3.3551,3.3532,3.3532,3.3532,3.3085,3.3131,3.318,3.3242,3.3287,3.3358,3.3398,3.3447,3.3475,3.3492,3.3512,3.3524,3.353,3.353,3.3543,3.3521,3.3521,3.3521,3.3521,3.312,3.3156,3.3198,3.3262,3.3309,3.3361,3.3431,3.345,3.3505,3.3511,3.3524,3.3527,3.353,3.3543,3.352,3.352,3.352,3.352,3.352,3.3113,3.3138,3.3174,3.325,3.3302,3.3362,3.3414,3.3454,3.3491,3.3503,3.353,3.3531,3.3537,3.3514,3.3514,3.3514,3.3514,3.3514,3.3514,3.3091,3.3133,3.3174,3.3242,3.328,3.3333,3.3406,3.3443,3.3493,3.3518,3.3518,3.3546,3.3522,3.3516,3.3515,3.3515,3.3514,3.3514,3.3514,3.3109,3.3113,3.3175,3.3213,3.3298,3.3348,3.34,3.3472,3.3507,3.3532,3.3558,3.3535,3.3548,3.3548,3.3542,3.3548,3.3548,3.3548,3.3548,3.3103,3.3115,3.3191,3.3248,3.3309,3.3364,3.3432,3.349,3.3549,3.3574,3.3579,3.3575,3.3573,3.3588,3.3587,3.3583,3.3599,3.3599,3.3599,3.3117,3.3138,3.319,3.3252,3.3322,3.3381,3.3447,3.351,3.3577,3.3602,3.3594,3.3592,3.3587,3.3583,3.3606,3.3603,3.3596,0,0]}]]